[[{"header":{"parameterUnit":"m.s-1","parameterCategory":1,"la1":30.2991,"la2":30.254,"lo1":-89.0895,"lo2":-89.0444,"dy":0.0017,"dx":0.0017,"nx":28,"ny":28,"refTime":"2024-08-15T21:00:00:Z","depth":0,"parameterNumber":2,"parameterNumberName":"U-component_of_WINDS"},"data":[0,0,0,0,0,0,0,0,0,0,0,0,0,0,0,0,0,0,0,0,0,0,0,0,0,0,0,0,0,0,0,0,0,0,0,0,0,0,0,0,0,0,0,0,0,0,0,0,0,0,0,0,0,0,0,0,0,0,0.658,0.6579,0,0.6483,0.6482,0.6481,0.6405,0.6404,0.6404,0.6403,0.6303,0.6301,0.6299,0,0,0,0,0,0,0,0,0,0,0,0,0,0.6696,0.6695,0.658,0.6579,0.6578,0.6483,0.6482,0.6481,0.6405,0.6404,0.6403,0.6402,0.6304,0.6301,0.6299,0,0,0,0,0,0,0,0,0,0,0,0,0,0.6627,0.6694,0.658,0.6528,0.6523,0.6484,0.6482,0.648,0.6405,0.6404,0.6403,0.6402,0.6304,0.6302,0.6299,0.6303,0,0,0.629,0.6288,0,0,0,0,0,0,0,0,0.6631,0.6623,0.6537,0.6532,0.6526,0.6455,0.6486,0.6421,0.6406,0.645,0.6403,0.6402,0.6354,0.6347,0.6332,0.6298,0.6294,0.6289,0.6288,0.6286,0.6285,0,0,0,0,0,0,0,0.6636,0.6627,0.6542,0.6536,0.6529,0.6509,0.6498,0.6474,0.641,0.6446,0.644,0.643,0.6351,0.6335,0.6329,0.6292,0.6289,0.6287,0.6285,0.6284,0.6253,0.6254,0,0,0,0,0,0,0.6649,0.6631,0.6545,0.6539,0.6577,0.6508,0.6496,0.6479,0.641,0.6398,0.6431,0.6427,0.634,0.6332,0.6325,0.6322,0.6286,0.6284,0.6282,0.6252,0.6253,0.6254,0,0,0,0,0,0,0.6652,0.6642,0.6549,0.6583,0.657,0.6507,0.6489,0.6477,0.6461,0.6398,0.6386,0.6426,0.6339,0.6329,0.6308,0.6318,0.6282,0.6279,0.6251,0.6252,0.6254,0.6319,0,0,0,0,0,0,0.6656,0.6644,0.6646,0.6584,0.6568,0.6534,0.649,0.6476,0.6456,0.645,0.639,0.638,0.6337,0.6313,0.6305,0.6313,0.6277,0.625,0.6252,0.6253,0.6316,0.6323,0.6329,0,0,0,0,0,0.666,0.6669,0.6646,0.6636,0.6569,0.6535,0.6526,0.6478,0.6457,0.6458,0.6417,0.6381,0.6318,0.6311,0.6302,0.6309,0.6249,0.6251,0.6253,0.6313,0.6322,0.6329,0,0,0,0,0,0,0.6733,0.666,0.6634,0.6623,0.6586,0.6523,0.6522,0.6489,0.6456,0.6452,0.6392,0.638,0.6364,0.6335,0.6328,0.6308,0.6279,0.6279,0.6328,0.6335,0.6341,0.6348,0.6275,0,0,0,0,0,0.6748,0.6727,0.6664,0.666,0.6642,0.6586,0.6569,0.6534,0.6494,0.6478,0.6435,0.6397,0.6367,0.635,0.632,0.6311,0.6296,0.6312,0.6318,0.6324,0.6324,0.6315,0.632,0.6261,0.6261,0.6261,0,0,0.6779,0.6736,0.6726,0.6673,0.6641,0.6619,0.6573,0.6553,0.6535,0.6474,0.6451,0.6419,0.6371,0.6356,0.6347,0.6331,0.6337,0.6326,0.6331,0.6329,0.6317,0.6323,0.6328,0.6263,0.6262,0.6262,0,0,0.6822,0.6789,0.678,0.6748,0.6699,0.666,0.6659,0.66,0.6575,0.6551,0.6504,0.6482,0.6435,0.6402,0.6379,0.6408,0.6373,0.64,0.6433,0.6424,0.6428,0.6432,0.644,0.6444,0.6401,0.6401,0.6401,0,0.6866,0.6832,0.678,0.6762,0.6739,0.6682,0.6672,0.6643,0.6587,0.6572,0.6555,0.6491,0.6456,0.643,0.6437,0.6421,0.6415,0.6406,0.6432,0.6435,0.6438,0.6445,0.6448,0.6404,0.6404,0.6404,0.6403,0,0.6887,0.6864,0.6863,0.6809,0.6786,0.6773,0.6717,0.67,0.6667,0.663,0.6605,0.6559,0.6518,0.651,0.6478,0.6479,0.647,0.6444,0.6413,0.6448,0.6453,0.6456,0.6409,0.6408,0.6407,0.6406,0,0,0.6976,0.6891,0.6892,0.6865,0.6806,0.6786,0.6769,0.6728,0.6713,0.6676,0.6658,0.6618,0.6592,0.6566,0.6529,0.6522,0.6544,0.6495,0.6493,0.6504,0.6539,0.6559,0.6563,0.6521,0.6521,0.6522,0.6543,0,0.7008,0.6974,0.6926,0.6907,0.6883,0.6828,0.6812,0.6773,0.6738,0.6712,0.6672,0.6643,0.6613,0.6596,0.6586,0.6544,0.655,0.6542,0.6502,0.6502,0.6515,0.6566,0.6587,0.6609,0.6545,0.6545,0.6545,0,0.7043,0.7007,0.6986,0.6925,0.6914,0.6901,0.6858,0.6834,0.6788,0.6762,0.6732,0.6692,0.6669,0.6642,0.6608,0.6603,0.6584,0.656,0.656,0.6554,0.6525,0.6559,0.6616,0.6618,0.6549,0.6548,0.6548,0,0.7106,0.7053,0.7033,0.7012,0.6942,0.6933,0.6904,0.6856,0.6834,0.6796,0.6781,0.6741,0.6719,0.6689,0.6638,0.6624,0.6609,0.6578,0.6585,0.6586,0.6584,0.6584,0.6636,0.6574,0.6574,0.6574,0.6574,0,0.7147,0.7136,0.706,0.7047,0.7032,0.6976,0.6962,0.6927,0.6885,0.6863,0.6813,0.6794,0.6729,0.6702,0.6662,0.6638,0.6629,0.6607,0.6596,0.661,0.6613,0.6596,0.6593,0.6575,0.6575,0.6575,0.6575,0,0.7215,0.7165,0.7138,0.7073,0.7056,0.7048,0.6991,0.6976,0.6937,0.691,0.6901,0.6839,0.6804,0.6751,0.67,0.6673,0.6655,0.6639,0.6671,0.6664,0.6673,0.6672,0.6714,0.6716,0.6656,0.6656,0.6657,0,0.7244,0.7234,0.7167,0.7149,0.7121,0.7093,0.7069,0.7013,0.699,0.6935,0.6926,0.6887,0.6852,0.6798,0.6748,0.6708,0.6689,0.6707,0.6683,0.6697,0.6687,0.6688,0.6685,0.6712,0.6713,0.6714,0.6715,0,0.73,0.7275,0.7243,0.7202,0.7175,0.714,0.7102,0.709,0.7025,0.7002,0.6965,0.6938,0.6885,0.6846,0.6799,0.6767,0.6729,0.6723,0.6722,0.6735,0.6754,0.6742,0.6684,0.6722,0.6721,0.6721,0.672,0.672,0.7348,0.7335,0.7285,0.7251,0.7216,0.7182,0.7163,0.7121,0.709,0.7042,0.7011,0.6975,0.6926,0.6859,0.6828,0.6798,0.6783,0.6782,0.6781,0.6782,0.6786,0.676,0.679,0.679,0.6789,0.6789,0.6789,0,0.7399,0.7364,0.7333,0.7281,0.7253,0.7221,0.7177,0.7155,0.7125,0.7082,0.7049,0.7005,0.6967,0.6913,0.687,0.6856,0.6837,0.6846,0.6846,0.6839,0.6804,0.6808,0.6862,0.6862,0.6862,0.6862,0.6862,0.6862,0.7422,0.7398,0.7367,0.7324,0.7288,0.7253,0.723,0.7197,0.7163,0.7116,0.7084,0.7049,0.7001,0.6954,0.6916,0.6901,0.6887,0.6901,0.688,0.6848,0.6842,0.6835,0.6839,0.6898,0.6898,0.6917,0.6918,0.6918]},{"header":{"parameterUnit":"m.s-1","parameterCategory":1,"la1":30.2991,"la2":30.254,"lo1":-89.0895,"lo2":-89.0444,"dy":0.0017,"dx":0.0017,"nx":28,"ny":28,"refTime":"2024-08-15T21:00:00:Z","depth":0,"parameterNumber":3,"parameterNumberName":"V-component_of_WINDS"},"data":[0,0,0,0,0,0,0,0,0,0,0,0,0,0,0,0,0,0,0,0,0,0,0,0,0,0,0,0,0,0,0,0,0,0,0,0,0,0,0,0,0,0,0,0,0,0,0,0,0,0,0,0,0,0,0,0,0,0,2.5938,2.5938,0,2.5962,2.5962,2.5962,2.5946,2.5946,2.5945,2.5944,2.5967,2.5968,2.5969,0,0,0,0,0,0,0,0,0,0,0,0,0,2.5874,2.5876,2.5938,2.5938,2.5938,2.5962,2.5962,2.5962,2.5947,2.5946,2.5945,2.5944,2.5966,2.5968,2.5969,0,0,0,0,0,0,0,0,0,0,0,0,0,2.59,2.5876,2.5938,2.5933,2.5933,2.5962,2.5962,2.5962,2.5947,2.5946,2.5945,2.5944,2.5966,2.5968,2.5969,2.6003,0,0,2.5975,2.5976,0,0,0,0,0,0,0,0,2.5899,2.5903,2.5934,2.5934,2.5934,2.595,2.5948,2.5976,2.5947,2.5942,2.5944,2.5943,2.5962,2.5964,2.5971,2.6004,2.6005,2.5975,2.5977,2.5977,2.5978,0,0,0,0,0,0,0,2.5897,2.5902,2.5947,2.5934,2.5934,2.5929,2.5931,2.5953,2.5957,2.5942,2.5941,2.5944,2.5962,2.5969,2.5971,2.6005,2.5975,2.5977,2.5978,2.5979,2.6064,2.6065,0,0,0,0,0,0,2.5896,2.59,2.5946,2.5948,2.5913,2.5931,2.5934,2.5946,2.5957,2.5958,2.5945,2.5943,2.5966,2.5969,2.5972,2.601,2.5977,2.5979,2.598,2.6063,2.6064,2.6065,0,0,0,0,0,0,2.5895,2.59,2.5945,2.5924,2.5929,2.5933,2.5947,2.5947,2.5954,2.5959,2.596,2.5952,2.5966,2.5969,2.5995,2.601,2.598,2.5982,2.6061,2.6063,2.6065,2.6087,0,0,0,0,0,0,2.5893,2.59,2.5914,2.5924,2.593,2.5969,2.5948,2.5948,2.5958,2.5956,2.5966,2.5967,2.5965,2.5992,2.5997,2.6012,2.5983,2.606,2.6062,2.6064,2.6084,2.6089,2.6093,0,0,0,0,0,2.5891,2.5919,2.5915,2.592,2.5948,2.597,2.5973,2.5971,2.5959,2.5972,2.5975,2.5966,2.6008,2.5995,2.6,2.6016,2.6059,2.6061,2.6064,2.6083,2.6088,2.6092,0,0,0,0,0,0,2.591,2.592,2.5916,2.5948,2.5958,2.5967,2.5984,2.5977,2.5991,2.5988,2.5984,2.5987,2.6013,2.6017,2.6002,2.6048,2.6031,2.6035,2.6044,2.6049,2.6053,2.6051,2.5985,0,0,0,0,0,2.5918,2.5936,2.5944,2.5972,2.5977,2.598,2.5989,2.5987,2.5997,2.6001,2.6006,2.6015,2.603,2.604,2.6054,2.6085,2.6086,2.6099,2.6103,2.6106,2.6109,2.6124,2.6129,2.6073,2.6073,2.6073,0,0,2.5935,2.5943,2.5955,2.5976,2.5984,2.6001,2.5983,2.6003,2.6015,2.6004,2.6028,2.6032,2.6041,2.6069,2.6082,2.6074,2.6125,2.611,2.6112,2.6113,2.6127,2.6132,2.6136,2.6075,2.6075,2.6075,0,0,2.5974,2.5983,2.6006,2.6014,2.6025,2.6026,2.6032,2.6041,2.6043,2.6068,2.6059,2.6073,2.6099,2.6106,2.6113,2.6153,2.6144,2.6157,2.6178,2.6192,2.6196,2.62,2.6212,2.6217,2.616,2.6161,2.6161,0,2.5993,2.602,2.6018,2.6038,2.6047,2.6037,2.6059,2.6067,2.6082,2.6088,2.6079,2.6111,2.6117,2.6145,2.6154,2.6161,2.6166,2.6156,2.6196,2.62,2.6203,2.6215,2.622,2.6162,2.6162,2.6162,2.6161,0,2.6042,2.606,2.6077,2.6092,2.6103,2.6124,2.6124,2.6135,2.6131,2.6133,2.6156,2.6163,2.6178,2.6185,2.6182,2.6212,2.6206,2.6197,2.618,2.621,2.6221,2.6225,2.6164,2.6163,2.6163,2.6163,0,0,2.6094,2.6107,2.6113,2.6118,2.613,2.6143,2.6163,2.6178,2.6186,2.6197,2.6212,2.6234,2.6225,2.6232,2.623,2.6242,2.6271,2.6231,2.6231,2.6237,2.6302,2.6308,2.6313,2.6266,2.6267,2.6267,2.6301,0,2.6132,2.6167,2.6165,2.6197,2.6213,2.6203,2.622,2.6228,2.6229,2.6242,2.6244,2.6259,2.6247,2.6251,2.6263,2.6265,2.6284,2.6263,2.6278,2.6279,2.6274,2.6319,2.6326,2.6357,2.6305,2.6306,2.6306,0,2.6181,2.6193,2.6227,2.6234,2.624,2.6255,2.6267,2.628,2.6288,2.6288,2.6297,2.6291,2.6309,2.6293,2.6317,2.6303,2.6309,2.6311,2.6312,2.6312,2.6293,2.6319,2.6367,2.6371,2.6313,2.6313,2.6312,0,2.6213,2.6238,2.626,2.6266,2.6275,2.6285,2.629,2.6297,2.6305,2.6315,2.632,2.6332,2.6339,2.6348,2.6345,2.6334,2.6369,2.6353,2.6368,2.6368,2.6375,2.6374,2.6423,2.6382,2.6382,2.6382,2.6382,0,2.6255,2.6275,2.6274,2.6288,2.631,2.6307,2.6328,2.6331,2.6337,2.635,2.6343,2.6356,2.6353,2.6364,2.6363,2.6381,2.6385,2.6384,2.6383,2.6384,2.6384,2.6387,2.6384,2.6383,2.6383,2.6382,2.6382,0,2.6294,2.6294,2.6318,2.6325,2.6327,2.6342,2.6347,2.6359,2.636,2.6376,2.638,2.6381,2.6394,2.6393,2.6408,2.6407,2.643,2.6427,2.6427,2.6426,2.644,2.6438,2.6491,2.6497,2.6454,2.6454,2.6455,0,2.632,2.6335,2.6343,2.6351,2.6356,2.637,2.6377,2.6375,2.6383,2.6393,2.6403,2.6416,2.6426,2.6447,2.6449,2.646,2.6456,2.6474,2.6457,2.6457,2.6454,2.6452,2.6453,2.6476,2.6477,2.6477,2.6478,0,2.6365,2.6364,2.6376,2.6387,2.6397,2.6406,2.6414,2.6421,2.6419,2.6429,2.6442,2.645,2.6465,2.6477,2.6487,2.649,2.6483,2.6483,2.6487,2.6487,2.6485,2.6484,2.6434,2.6482,2.6481,2.6481,2.6481,2.6481,2.6397,2.6409,2.6416,2.6429,2.6434,2.6442,2.6453,2.6455,2.6466,2.6478,2.6476,2.649,2.6496,2.6509,2.6513,2.6524,2.6517,2.6523,2.6524,2.6525,2.6526,2.6485,2.6526,2.6526,2.6526,2.6526,2.6526,0,2.644,2.6443,2.6455,2.6466,2.6476,2.6469,2.6477,2.6486,2.6499,2.6505,2.6515,2.6529,2.654,2.6542,2.6553,2.6561,2.6558,2.6563,2.6562,2.6562,2.6532,2.6527,2.6566,2.6566,2.6566,2.6566,2.6566,2.6566,2.6463,2.6482,2.6482,2.6504,2.6507,2.6521,2.6526,2.6532,2.6537,2.6553,2.6563,2.6564,2.6568,2.6579,2.6588,2.6588,2.6592,2.6598,2.6597,2.6569,2.6565,2.6561,2.6556,2.66,2.66,2.6626,2.6626,2.6626]}]]